Location: Unspecified
(35.6961°N, 0.0000°E)
Time: 22:57:46
(UTC+00:00)

UNISAT 6 - Pass Details

Date: 24 June 2019
Orbit: 606 x 690 km, 97.7° (Epoch: 13 October)

Event Time Altitude Azimuth Distance (km) Brightness Sun altitude
Rises 21:00:16 0° 10° (N) 2,894 ? -16.9°
Reaches altitude 10° 21:02:26 10° 9° (N) 1,994 ? -17.2°
Maximum altitude 21:06:46 77° 284° (WNW) 651 ? -17.8°
Enters shadow 21:10:23 15° 199° (SSW) 1,707 ? -18.2°
